Regional Weather Roundup
Issued by NWS

Home | Current Version | Previous Version | Text Only | Print | Product List | Glossary Off
Versions: 1 2 3 4 5 6 7 8 9 10 11 12 13 14 15 16 17 18 19 20 21 22 23 24 25 26 27 28 29 30 31 32 33 34 35 36 37 38 39 40 41 42 43 44 45 46 47 48 49 50

747
ASUS45 KBOI 051610
RWRID

IDAHO REGIONAL WEATHER ROUNDUP
NATIONAL WEATHER SERVICE BOISE ID
1000 AM MDT THU MAY 05 2016

NOTE: "FAIR" INDICATES FEW OR NO CLOUDS BELOW 12000 FEET
WITH NO SIGNIFICANT WEATHER AND/OR OBSTRUCTIONS TO VISIBILITY

IDZ012-014-051700-
SOUTHWEST IDAHO


CITY           SKY/WX    TMP DP  RH WIND       PRES   REMARKS
BOISE          CLOUDY    59  46  62 CALM      29.87S
CALDWELL       CLOUDY    60  47  61 W9        29.87F
MOUNTAIN HOME  CLOUDY    63  45  50 NW12      29.87
$$

IDZ016-017-051700-
SOUTHCENTRAL IDAHO


CITY           SKY/WX    TMP DP  RH WIND       PRES   REMARKS
BURLEY         PTSUNNY   59  45  59 W5        29.92S
JEROME         PTSUNNY   58  44  60 S8        29.93F
TWIN FALLS     PTSUNNY   60  43  53 SW9       29.92F
$$

IDZ019>023-051700-
SOUTHEAST IDAHO


CITY           SKY/WX    TMP DP  RH WIND       PRES   REMARKS
IDAHO FALLS    CLOUDY    64  43  46 N7        29.98F
POCATELLO      CLOUDY    64  44  48 VRB3      29.95F
REXBURG        CLOUDY    61  39  44 NE5       29.99F
$$

IDZ006-010-011-018-031-032-051700-
CENTRAL IDAHO MOUNTAINS


CITY           SKY/WX    TMP DP  RH WIND       PRES   REMARKS
MCCALL         PTSUNNY   57  42  57 NW6       29.92F
HAILEY         MOSUNNY   59  36  41 NW12      29.99F
STANLEY          N/A     49  33  54 N5        30.04F
SALMON         CLOUDY    55  37  50 NW7       29.96F
CHALLIS        PTSUNNY   57  35  43 NE3       29.99F
$$

IDZ002-004-006-007-026-051700-
NORTHERN IDAHO


CITY           SKY/WX    TMP DP  RH WIND       PRES   REMARKS
LEWISTON       SUNNY     64  52  64 VRB5      29.90F
LOWELL           N/A     63  53  70 CALM      29.90F
COEUR D`ALENE  PTSUNNY   57  52  82 NW6       29.92F
MULLAN PASS    PTSUNNY   49  41  74 CALM      30.01F
$$




USA.gov is the U.S. government's official web portal to all federal, state and local government web resources and services.